Weather History for Perry, FL

Change the Weather History Date:

Sunday, May 19, 2013

  Actual Average (KCTY) Record (KCTY)
Temperature  
Mean Temperature 76 °F 76 °F  
Max Temperature 89 °F 89 °F 93 °F (1998)
Min Temperature 62 °F 63 °F 48 °F (2011)
Degree Days  
Heating Degree Days 0 0  
Month to date heating degree days 0  
Since 1 July heating degree days 1303  
Cooling Degree Days 10 11  
Month to date cooling degree days 153  
Year to date cooling degree days 335  
Growing Degree Days 26 (Base 50)    
Moisture  
Dew Point 63 °F    
Average Humidity 70    
Maximum Humidity 100    
Minimum Humidity 42    
Precipitation  
Precipitation 0.04 in 0.06 in 0.10 in (2002)
Month to date precipitation 1.33  
Year to date precipitation 15.81  
Sea Level Pressure  
Sea Level Pressure 30.06 in    
Wind  
Wind Speed 3 mph (SSW)    
Max Wind Speed 13 mph    
Max Gust Speed 16 mph    
Visibility 10 miles    
Events Thunderstorm    
T = Trace of Precipitation, MM = Missing Value Source: NWS Daily Summary

Daily Weather History Graph

Daily Weather History Graph

Search for Another Location

Airport:

Trip Planner

Search our weather history database for the weather conditions in past years. The results will help you decide how hot, cold, wet, or windy it might be!

Date:

Astronomy

May. 19, 2013 Rise Set
Actual Time 6:38 AM EDT 8:23 PM EDT
Civil Twilight 6:11 AM EDT 8:50 PM EDT
Nautical Twilight 5:40 AM EDT 9:21 PM EDT
Astronomical Twilight 5:06 AM EDT 9:55 PM EDT
Moon 2:50 PM EDT (5/19) 2:35 AM EDT (5/19)
Length of Visible Light 14h 38m
Length of Day
13h 45m
Waxing Gibbous, 65% of the Moon is Illuminated
May 19
Waxing Gibbous
May 25
Full
May 31
Last Quarter
Jun 8
New
Jun 16
First Quarter

Hourly Weather History & Observations

Time (EDT) Temp. Heat Index Dew Point Humidity Pressure Visibility Wind Dir Wind Speed Gust Speed Precip Events Conditions
12:15 AM 68.0 °F - 62.6 °F 83% 30.08 in 10.0 mi Calm Calm - N/A   Clear
12:35 AM 68.0 °F - 62.6 °F 83% 30.08 in 10.0 mi Calm Calm - N/A   Clear
12:53 AM 66.9 °F - 63.0 °F 87% 30.06 in - Calm Calm - N/A   Unknown
12:55 AM 66.2 °F - 62.6 °F 88% 30.08 in 10.0 mi Calm Calm - N/A   Scattered Clouds
1:15 AM 66.2 °F - 62.6 °F 88% 30.07 in 10.0 mi Calm Calm - N/A   Overcast
1:35 AM 68.0 °F - 64.4 °F 88% 30.07 in 10.0 mi ESE 6.9 mph - N/A   Scattered Clouds
1:53 AM 71.1 °F - 64.9 °F 81% 30.05 in - ESE 5.8 mph - N/A   Unknown
1:55 AM 69.8 °F - 64.4 °F 83% 30.06 in 10.0 mi ESE 4.6 mph - N/A   Clear
2:15 AM 68.0 °F - 64.4 °F 88% 30.05 in 10.0 mi ESE 4.6 mph - N/A   Clear
2:35 AM 68.0 °F - 64.4 °F 88% 30.05 in 10.0 mi SE 3.5 mph - N/A   Clear
2:53 AM 69.1 °F - 64.0 °F 84% 30.03 in - Calm Calm - 0.01 in   Unknown
2:55 AM 68.0 °F - 62.6 °F 83% 30.04 in 10.0 mi Calm Calm - N/A   Clear
3:15 AM 66.2 °F - 62.6 °F 88% 30.04 in 10.0 mi Calm Calm - N/A   Clear
3:35 AM 64.4 °F - 62.6 °F 94% 30.04 in 10.0 mi Calm Calm - N/A   Clear
3:53 AM 66.0 °F - 63.0 °F 90% 30.03 in - Calm Calm - N/A   Unknown
3:55 AM 64.4 °F - 62.6 °F 94% 30.04 in 10.0 mi Calm Calm - N/A   Clear
4:15 AM 64.4 °F - 62.6 °F 94% 30.04 in 10.0 mi Calm Calm - N/A   Clear
4:35 AM 62.6 °F - 62.6 °F 100% 30.03 in 7.0 mi Calm Calm - N/A   Clear
4:53 AM 66.9 °F - 63.0 °F 87% 30.03 in - Calm Calm - N/A   Unknown
4:55 AM 64.4 °F - 62.6 °F 94% 30.04 in 7.0 mi Calm Calm - N/A   Clear
5:15 AM 64.4 °F - 62.6 °F 94% 30.05 in 7.0 mi Calm Calm - N/A   Scattered Clouds
5:35 AM 66.2 °F - 64.4 °F 94% 30.04 in 10.0 mi East 3.5 mph - N/A   Scattered Clouds
5:53 AM 68.0 °F - 64.0 °F 87% 30.03 in - Calm Calm - 0.01 in   Unknown
5:55 AM 66.2 °F - 64.4 °F 94% 30.04 in 10.0 mi Calm Calm - N/A   Clear
6:15 AM 64.4 °F - 62.6 °F 94% 30.04 in 7.0 mi Calm Calm - N/A   Clear
6:35 AM 64.4 °F - 64.4 °F 100% 30.05 in 10.0 mi Calm Calm - N/A   Clear
6:53 AM 66.9 °F - 64.0 °F 90% 30.05 in - Calm Calm - 0.01 in   Unknown
6:55 AM 64.4 °F - 62.6 °F 94% 30.06 in 7.0 mi Calm Calm - N/A   Clear
7:15 AM 64.4 °F - 62.6 °F 94% 30.08 in 5.0 mi Calm Calm - N/A   Clear
7:35 AM 64.4 °F - 62.6 °F 94% 30.08 in 10.0 mi Calm Calm - N/A   Clear
7:53 AM 69.1 °F - 64.9 °F 87% 30.07 in - Calm Calm - N/A   Unknown
7:55 AM 66.2 °F - 64.4 °F 94% 30.09 in 10.0 mi Calm Calm - N/A   Clear
8:15 AM 68.0 °F - 66.2 °F 94% 30.09 in 10.0 mi Calm Calm - N/A   Clear
8:35 AM 69.8 °F - 68.0 °F 94% 30.10 in 10.0 mi Calm Calm - N/A   Clear
8:53 AM 73.9 °F - 66.9 °F 79% 30.09 in - Calm Calm - N/A   Unknown
8:55 AM 69.8 °F - 68.0 °F 94% 30.10 in 10.0 mi Calm Calm - N/A   Clear
9:15 AM 71.6 °F - 68.0 °F 88% 30.10 in 10.0 mi Calm Calm - N/A   Clear
9:35 AM 73.4 °F - 68.0 °F 83% 30.10 in 10.0 mi SW 3.5 mph - N/A   Clear
9:53 AM 78.1 °F - 66.9 °F 68% 30.09 in - West 4.6 mph - N/A   Unknown
9:55 AM 77.0 °F - 68.0 °F 74% 30.10 in 10.0 mi West 3.5 mph - N/A   Clear
10:15 AM 78.8 °F - 68.0 °F 69% 30.10 in 10.0 mi WSW 5.8 mph - N/A   Clear
10:35 AM 78.8 °F - 66.2 °F 65% 30.11 in 10.0 mi WSW 5.8 mph - N/A   Clear
10:53 AM 82.0 °F 84.5 °F 66.9 °F 60% 30.09 in - Variable 5.8 mph - N/A   Unknown
10:55 AM 80.6 °F 82.7 °F 66.2 °F 61% 30.10 in 10.0 mi SSW 5.8 mph - N/A   Clear
11:15 AM 80.6 °F 82.3 °F 64.4 °F 58% 30.10 in 10.0 mi West 6.9 mph - N/A   Clear
11:35 AM 80.6 °F 82.3 °F 64.4 °F 58% 30.09 in 10.0 mi WSW 6.9 mph - N/A   Clear
11:53 AM 84.9 °F 86.6 °F 64.9 °F 51% 30.08 in - SSW 5.8 mph - N/A   Unknown
11:55 AM 82.4 °F 83.9 °F 64.4 °F 54% 30.09 in 10.0 mi SSW 4.6 mph - N/A   Clear
12:15 PM 82.4 °F 83.4 °F 62.6 °F 51% 30.09 in 10.0 mi SSE 5.8 mph - N/A   Scattered Clouds
12:35 PM 82.4 °F 83.4 °F 62.6 °F 51% 30.08 in 10.0 mi South 8.1 mph - N/A   Scattered Clouds
12:53 PM 86.0 °F 87.3 °F 64.0 °F 48% 30.06 in - Variable 4.6 mph - N/A   Unknown
12:55 PM 82.4 °F 83.4 °F 62.6 °F 51% 30.07 in 10.0 mi South 3.5 mph - N/A   Clear
1:15 PM 84.2 °F 85.0 °F 62.6 °F 48% 30.07 in 10.0 mi South 3.5 mph - N/A   Clear
1:35 PM 84.2 °F 85.0 °F 62.6 °F 48% 30.06 in 10.0 mi South 5.8 mph - N/A   Clear
1:53 PM 87.1 °F 88.3 °F 64.0 °F 46% 30.05 in - South 8.1 mph - N/A   Unknown
1:55 PM 86.0 °F 86.1 °F 60.8 °F 43% 30.06 in 10.0 mi South 8.1 mph - N/A   Clear
2:15 PM 86.0 °F 86.1 °F 60.8 °F 43% 30.05 in 10.0 mi SW 3.5 mph - N/A   Clear
2:35 PM 86.0 °F 86.1 °F 60.8 °F 43% 30.04 in 10.0 mi NE 3.5 mph - N/A   Clear
2:53 PM 89.1 °F 90.0 °F 63.0 °F 42% 30.02 in - Calm Calm - N/A   Unknown
2:55 PM 86.0 °F 86.1 °F 60.8 °F 43% 30.04 in 10.0 mi Calm Calm - N/A   Clear
3:15 PM 86.0 °F 86.1 °F 60.8 °F 43% 30.03 in 10.0 mi SSW 3.5 mph - N/A   Clear
3:35 PM 82.4 °F 82.9 °F 60.8 °F 48% 30.03 in 10.0 mi South 8.1 mph - N/A   Clear
3:53 PM 86.0 °F 87.3 °F 64.0 °F 48% 30.01 in - SW 12.7 mph - N/A   Unknown
3:55 PM 82.4 °F 83.4 °F 62.6 °F 51% 30.03 in 10.0 mi SW 11.5 mph - N/A   Clear
4:15 PM 84.2 °F 84.4 °F 60.8 °F 45% 30.03 in 10.0 mi SW 9.2 mph - N/A   Clear
4:35 PM 84.2 °F 83.8 °F 59.0 °F 42% 30.02 in 10.0 mi SW 10.4 mph - N/A   Clear
4:53 PM 86.0 °F 86.1 °F 61.0 °F 43% 30.01 in - SW 10.4 mph - N/A   Unknown
4:55 PM 84.2 °F 83.8 °F 59.0 °F 42% 30.03 in 10.0 mi SW 9.2 mph 16.1 mph N/A   Clear
5:15 PM 82.4 °F 82.0 °F 57.2 °F 42% 30.02 in 10.0 mi SW 9.2 mph - N/A   Clear
5:35 PM 82.4 °F 82.5 °F 59.0 °F 45% 30.01 in 10.0 mi SW 10.4 mph - N/A   Clear
5:53 PM 82.9 °F 83.2 °F 60.1 °F 46% 30.01 in - WSW 10.4 mph - N/A   Unknown
5:55 PM 80.6 °F 81.1 °F 59.0 °F 48% 30.02 in 10.0 mi WSW 10.4 mph - N/A   Clear
6:15 PM 80.6 °F 81.1 °F 59.0 °F 48% 30.02 in 10.0 mi SW 5.8 mph - N/A   Clear
6:35 PM 80.6 °F 81.1 °F 59.0 °F 48% 30.02 in 10.0 mi SW 8.1 mph - N/A   Clear
6:53 PM 82.0 °F 82.7 °F 61.0 °F 49% 29.99 in - SW 9.2 mph - N/A   Unknown
6:55 PM 80.6 °F 81.1 °F 59.0 °F 48% 30.00 in 10.0 mi SW 9.2 mph - N/A   Clear
7:15 PM 78.8 °F - 60.8 °F 54% 30.02 in 10.0 mi WSW 4.6 mph - N/A   Scattered Clouds
7:35 PM 78.8 °F - 60.8 °F 54% 30.03 in 10.0 mi WSW 6.9 mph - N/A Thunderstorm Mostly Cloudy
7:53 PM 79.0 °F - 64.0 °F 60% 30.02 in - WSW 5.8 mph - N/A   Unknown
7:55 PM 77.0 °F - 62.6 °F 61% 30.04 in 10.0 mi WSW 5.8 mph - N/A   Mostly Cloudy
8:15 PM 75.2 °F - 64.4 °F 69% 30.04 in 10.0 mi West 4.6 mph - N/A   Scattered Clouds
8:35 PM 73.4 °F - 64.4 °F 73% 30.04 in 10.0 mi Calm Calm - N/A   Scattered Clouds
8:53 PM 73.9 °F - 64.9 °F 73% 30.01 in - South 5.8 mph - 0.01 in   Unknown
8:55 PM 71.6 °F - 64.4 °F 78% 30.02 in 10.0 mi South 4.6 mph - N/A   Clear
9:15 PM 73.4 °F - 64.4 °F 73% 30.02 in 10.0 mi SSW 4.6 mph - N/A   Clear
9:35 PM 71.6 °F - 64.4 °F 78% 30.05 in 10.0 mi Calm Calm - N/A   Clear
9:53 PM 73.9 °F - 64.9 °F 73% 30.06 in - NNE 3.5 mph - N/A   Unknown
9:55 PM 71.6 °F - 64.4 °F 78% 30.08 in 10.0 mi NNE 3.5 mph - N/A   Clear
10:15 PM 71.6 °F - 64.4 °F 78% 30.08 in 10.0 mi NNE 3.5 mph - N/A   Clear
10:35 PM 71.6 °F - 64.4 °F 78% 30.10 in 10.0 mi NE 4.6 mph - N/A   Clear
10:53 PM 73.0 °F - 64.9 °F 76% 30.07 in - SE 3.5 mph - N/A   Unknown
10:55 PM 71.6 °F - 64.4 °F 78% 30.09 in 10.0 mi ESE 3.5 mph - N/A   Clear
11:15 PM 71.6 °F - 64.4 °F 78% 30.09 in 10.0 mi Calm Calm - N/A   Clear
11:35 PM 71.6 °F - 64.4 °F 78% 30.09 in 10.0 mi Calm Calm - N/A   Clear
11:53 PM 72.0 °F - 64.0 °F 76% 30.08 in - Calm Calm - N/A   Unknown
11:55 PM 71.6 °F - 64.4 °F 78% 30.09 in 10.0 mi Calm Calm - N/A   Clear